Weather Service Report


795 
ASUS41 KPHI 311510
RWRPHI

REGIONAL WEATHER ROUNDUP
NATIONAL WEATHER SERVICE MOUNT HOLLY NJ
1100 AM EDT FRI OCT 31 2014

NOTE:  "FAIR" INDICATES FEW OR NO CLOUDS BELOW 12,000 FEET WITH NO
SIGNIFICANT WEATHER AND/OR OBSTRUCTIONS TO VISIBILITY.

 * = STATION DOES NOT REPORT PRECIPITATION (E.G. RAIN, SNOW, ETC.) 
        OR FOG.

NJZ015>026-311600-
SOUTHERN NEW JERSEY
  
CITY           SKY/WX    TMP DP  RH WIND       PRES   REMARKS
POMONA         CLOUDY    49  40  71 NE6       29.95F                  
RIO GRANDE*    CLOUDY    50  37  62 N7        29.97F                  
MILLVILLE      PTSUNNY   48  38  68 N8        29.97F                  
WRIGHTSTOWN    PTSUNNY   46  38  73 NE7       29.96F                  
MOUNT HOLLY    CLOUDY    47  38  71 N5        29.98F                  
TRENTON        CLOUDY    48  35  60 NE7       29.98F                  

$$
NJZ001>014-311600-
NORTHERN NEW JERSEY
  
CITY           SKY/WX    TMP DP  RH WIND       PRES   REMARKS
SUSSEX         MOSUNNY   46  35  65 NE9       30.00F                  
ANDOVER*         N/A     43  36  76 VRB6      30.00F                  
MORRISTOWN     CLOUDY    48  39  71 NE6       30.01F                  
NEWARK         PTSUNNY   49  36  61 N10       30.00F                  
TETERBORO      CLOUDY    49  35  58 VRB6      29.99F                  
CALDWELL       CLOUDY    46  35  65 CALM      30.01F                  
SOMERVILLE     CLOUDY    46  38  73 VRB5      29.98F                  
ALLAIRE*       CLOUDY    48  36  61 NE9       29.97F                  
TOMS RIVER*    CLOUDY    48  39  71 N3        29.97F                  

$$
PAZ043-044-047-054-055-060>062-066>071-311600-
EASTERN PENNSYLVANIA
  
CITY           SKY/WX    TMP DP  RH WIND       PRES   REMARKS
PHILADELPHIA   CLOUDY    49  35  58 NE6       29.99F                  
NORTH PHILA    CLOUDY    49  35  58 NE6       30.00F                  
BLUE BELL      PTSUNNY   48  37  66 CALM      29.99F                  
DOYLESTOWN     PTSUNNY   48  36  63 NE8       29.99F                  
QUAKERTOWN*    PTSUNNY   46  37  71 NE3       30.01F                  
POTTSTOWN      PTSUNNY   48  36  63 NE7       30.01F                  
LANCASTER      CLOUDY    47  33  58 E5        29.99F                  
COATESVILLE    PTSUNNY   48  36  61 E5        29.99F                  
READING        MOSUNNY   45  36  70 CALM      29.99F                  
ALLENTOWN      MOSUNNY   46  35  65 E5        30.00F                  
MOUNT POCONO   SUNNY     42  30  62 E8        29.96F                  
HAZLETON       SUNNY     45  32  61 NE3       29.99F                  
WILKES BARRE   SUNNY     45  33  63 NW5       29.98F                  

$$
DEZALL-MDZ008-012-015-019-020-311600-
DELAWARE AND EASTERN MARYLAND
  
CITY           SKY/WX    TMP DP  RH WIND       PRES   REMARKS
WILMINGTON     MOSUNNY   50  38  63 N9        30.00F                  
DOVER          PTSUNNY   49  42  75 NE9       29.95F                  
GEORGETOWN     CLOUDY    51  39  63 NE9       29.97F                  
EASTON         CLOUDY    52  39  62 NE6       30.01F                  
PATUXENT       CLOUDY    53  40  61 NE7       29.96F                  
OCEAN CITY     CLOUDY    53  40  61 N8        29.95S                  
WALLOPS ISLAND CLOUDY    52  40  63 NE10      29.94F                  
CAMBRIDGE      PTSUNNY   52  37  58 N5        29.96F                  
SALISBURY      CLOUDY    53  40  61 N5        29.96F                  

$$
PAZ001-021-NYZ056-072-MDZ011-DCZ001-311600-
OTHER NEARBY LOCATIONS
  
CITY           SKY/WX    TMP DP  RH WIND       PRES   REMARKS
HARRISBURG     CLOUDY    49  35  58 CALM      29.99F                  
STATE COLLEGE  CLOUDY    43  36  75 VRB5      29.96F                  
WILLIAMSPORT   CLOUDY    43  35  73 CALM      29.99F                  
BINGHAMTON     PTSUNNY   41  34  76 SE7       29.97F                  
NEW YORK CITY  CLOUDY    50  33  52 CALM      30.01F                  
BALTIMORE      CLOUDY    51  38  60 E8        29.98F                  
WASHINGTON DC  CLOUDY    53  39  59 NE6       29.99F                  

$$

Return to Home page


Western Regional Climate Center, wrcc@dri.edu